Theta_e
340 340 340 341 339 339 339 340 342 342 344 344 344 344 346 346 351 354 355 358 360 360 362 363 362 363 361 360 362 365 362 364 361 360 360 364 363 364 360 360 359 365 361 360 364 367 365 366 366 365 370 368 367 369 372 374 372 363 371 376 368 379 370
338 338 340 340 340 341 340 342 343 343 344 345 345 348 347 347 352 352 355 358 359 359 360 361 363 362 361 363 361 365 365 365 364 366 362 365 369 368 363 363 363 366 366 370 369 366 367 363 366 365 368 368 367 370 368 370 372 372 371 372 370 375 374
339 339 340 341 342 342 343 345 343 344 345 345 344 344 346 351 354 357 357 357 359 360 359 358 361 360 361 363 362 362 362 363 362 361 359 358 359 360 360 364 362 360 363 364 367 361 366 361 369 368 368 367 362 370 371 371 371 369 371 374 370 366 370
340 341 342 344 345 346 345 345 346 346 346 347 345 344 349 355 354 358 357 357 355 358 359 356 357 356 359 362 361 362 361 362 362 359 358 358 359 359 363 363 365 362 361 359 359 358 358 364 362 370 369 368 369 367 367 368 365 368 369 371 369 370 373
341 341 342 346 351 348 345 345 346 348 349 349 350 350 351 355 354 356 355 354 356 356 356 354 354 356 358 359 356 357 358 357 358 356 357 358 361 360 359 357 357 357 362 357 363 366 365 363 363 365 365 368 366 369 371 368 367 371 372 371 370 368 370
340 344 343 345 342 342 343 344 346 347 348 350 351 351 351 353 348 349 352 353 355 357 359 355 353 356 354 356 356 355 359 362 364 365 359 360 360 356 355 357 355 355 357 357 360 355 362 361 362 363 360 359 359 361 362 366 363 365 368 370 369 366 360
342 344 340 345 352 346 348 344 343 348 351 356 352 352 352 352 350 351 352 352 356 356 351 350 350 354 355 356 359 360 357 356 358 356 357 354 356 356 358 357 358 355 353 359 358 359 358 360 361 362 362 359 363 359 366 366 367 366 371 371 369 371 371
343 344 346 348 347 348 344 347 344 347 349 347 349 350 353 351 353 353 351 350 351 348 351 350 353 355 357 357 356 356 357 357 356 356 357 354 354 355 354 353 355 359 359 354 358 359 356 361 355 359 361 357 361 363 363 366 372 363 365 368 369 365 358
345 345 345 346 347 347 349 344 349 346 344 350 348 351 352 352 355 355 358 366 360 356 357 356 358 361 361 361 360 358 358 357 357 357 354 352 351 350 351 352 354 357 355 353 353 357 359 358 356 365 365 363 365 366 362 366 365 366 365 366 368 366 361
340 342 341 342 343 346 346 347 349 348 349 352 350 348 347 347 353 359 360 363 359 358 361 361 364 364 363 360 358 358 359 357 359 355 354 351 350 349 349 349 351 355 353 353 352 353 359 361 360 366 370 363 366 367 367 369 367 366 363 367 366 367 369
338 340 339 341 344 346 347 350 349 346 348 348 348 349 350 347 343 351 357 356 357 354 352 361 363 363 364 360 357 356 356 354 356 353 357 359 356 349 349 348 347 349 350 351 351 351 353 361 362 364 369 358 361 364 368 365 366 366 360 364 363 367 362
336 338 339 342 341 341 341 342 346 347 348 349 349 351 353 354 352 354 357 357 358 356 357 357 366 365 363 361 357 358 354 350 349 352 354 357 358 356 348 347 346 346 347 348 350 353 350 354 354 356 366 366 364 363 365 366 366 367 365 360 362 362 363
338 336 338 338 337 340 340 341 342 346 348 347 349 350 354 356 356 356 357 359 361 362 358 359 364 368 367 365 360 359 356 351 351 351 353 359 362 361 355 349 346 344 345 347 349 349 348 347 355 360 360 366 363 360 363 365 362 367 367 364 362 363 363
338 338 339 340 339 338 338 339 341 342 346 350 353 353 352 355 354 356 357 359 361 363 359 359 357 364 368 365 364 365 362 360 358 361 364 366 365 365 363 358 354 352 352 355 349 346 346 347 347 352 355 359 361 363 365 366 364 368 368 366 363 359 362
338 337 338 338 340 340 339 341 343 343 343 347 351 350 353 353 356 357 357 358 359 356 358 362 361 361 360 363 363 364 365 365 367 367 368 368 367 365 365 363 358 358 357 357 352 345 347 347 346 348 351 355 361 363 360 356 360 363 363 361 366 362 359
337 338 338 339 341 342 343 343 345 346 346 349 349 348 350 352 354 353 356 355 355 356 359 363 363 362 362 362 364 365 366 366 366 365 365 367 367 367 367 364 364 361 363 363 363 360 360 363 359 349 347 350 353 356 356 354 353 358 365 363 363 364 360
335 336 338 340 342 340 342 343 345 345 346 347 347 349 349 350 350 351 350 353 355 356 360 360 359 360 360 361 362 364 365 365 363 364 364 365 365 366 367 366 366 365 364 364 364 367 366 365 359 353 349 345 346 350 349 349 344 335 339 348 358 362 364
332 335 338 340 340 341 341 343 343 344 345 345 346 347 348 348 350 350 350 351 352 354 357 356 353 354 355 356 359 362 361 361 361 361 360 361 361 362 362 363 363 362 362 361 360 364 360 358 359 360 356 349 349 349 351 345 333 330 333 336 337 352 365
330 333 336 338 339 340 340 341 342 343 343 344 343 344 345 343 340 340 343 348 351 353 353 352 354 354 354 353 351 351 355 357 357 356 357 358 358 360 360 360 360 360 359 355 356 359 359 357 357 359 353 348 349 352 351 345 329 329 330 331 333 337 356
330 334 337 336 336 337 338 338 338 338 339 340 340 340 339 338 336 336 338 341 343 345 345 346 347 347 347 348 350 352 354 353 354 352 354 354 356 359 359 358 357 358 357 356 357 358 359 358 361 361 354 351 352 354 349 343 329 326 328 329 331 334 347
334 337 334 335 335 335 336 335 335 335 335 336 337 336 334 334 335 335 335 337 338 339 339 340 340 340 342 343 345 347 348 349 350 349 350 352 354 354 354 354 354 353 355 357 357 356 357 360 360 356 351 352 355 355 349 333 321 323 324 325 328 333 351
336 334 333 334 334 334 334 334 334 334 333 335 334 334 333 332 333 332 332 333 334 334 334 334 334 336 340 341 342 342 343 343 343 344 346 348 349 349 350 350 350 350 353 353 353 355 358 359 357 353 351 350 352 351 350 333 318 318 320 322 325 333 357
337 336 335 334 334 333 333 334 334 334 334 333 333 332 332 333 333 332 331 330 330 331 332 332 332 332 334 337 339 341 343 343 343 343 342 343 342 342 343 344 346 348 349 347 350 353 353 354 351 352 351 349 350 349 341 332 320 316 316 318 321 342 357
333 334 335 335 335 333 333 332 332 332 331 332 331 331 331 331 330 328 326 325 327 328 329 329 329 331 332 332 334 338 340 343 343 342 342 341 340 341 343 345 346 347 347 345 344 347 351 352 349 351 348 348 347 345 336 330 321 314 314 314 317 335 353
333 334 335 336 335 334 335 334 332 330 329 329 330 329 329 328 327 325 324 325 325 325 325 326 327 329 329 331 333 335 339 340 340 342 342 340 339 340 340 342 344 347 349 348 347 347 350 352 348 348 348 349 346 343 337 332 326 314 312 313 314 331 350
332 333 333 333 333 333 333 335 333 328 326 326 326 325 326 327 327 327 326 326 325 325 325 326 327 329 330 331 332 334 334 333 337 338 337 337 339 341 341 343 345 347 347 347 348 345 345 347 347 346 346 346 342 340 334 329 326 320 311 311 313 317 344
331 331 330 331 331 334 332 331 328 323 322 323 326 327 327 326 323 322 323 323 322 320 321 325 328 330 330 329 327 325 326 327 330 331 333 335 337 338 341 346 345 344 343 341 338 338 341 341 346 344 341 340 339 338 337 332 326 322 310 310 310 313 328
330 329 329 331 332 329 326 323 323 322 322 324 324 324 324 326 325 325 321 320 322 325 326 326 326 326 325 325 323 323 326 327 331 331 331 333 336 339 340 338 339 341 337 334 333 334 337 341 344 345 341 340 338 336 333 334 331 325 316 311 310 310 316
328 328 327 327 326 326 325 324 323 322 323 324 324 324 325 326 326 326 326 324 323 322 323 325 327 329 329 327 324 327 329 331 329 331 333 334 334 335 335 338 336 337 341 339 334 333 337 339 342 344 342 337 334 332 330 330 329 328 326 316 310 310 312
329 329 328 327 326 326 326 324 324 323 323 323 324 325 327 327 325 325 325 324 329 327 326 325 324 326 324 327 329 328 325 322 322 327 328 328 334 334 332 333 335 337 339 341 338 339 337 338 341 342 339 336 333 331 329 328 328 329 329 325 315 314 313
328 328 327 326 325 327 326 325 324 323 324 324 324 325 326 326 324 324 323 326 329 329 329 329 328 328 325 324 322 322 324 327 326 324 328 327 326 328 328 325 327 329 328 330 337 337 334 337 339 340 338 336 333 332 332 331 331 330 331 327 324 317 316
329 330 328 327 326 326 325 324 325 325 323 323 324 324 326 325 325 323 324 325 327 327 327 327 327 328 328 327 327 327 325 324 320 322 325 325 325 326 328 324 325 326 328 328 326 327 331 336 336 334 332 334 333 335 337 338 335 335 333 333 331 329 324
328 330 328 326 327 326 324 324 322 321 322 322 325 325 325 325 326 327 327 326 325 327 328 327 326 326 327 326 327 327 327 324 324 325 325 327 323 323 324 324 325 323 328 329 331 328 330 329 332 334 333 333 333 334 336 327 325 325 321 321 321 321 324
329 328 329 330 329 330 326 324 323 323 324 324 325 325 324 324 325 327 328 326 325 326 328 328 327 325 325 323 324 324 321 317 319 325 319 317 320 319 319 321 322 323 323 322 320 321 324 326 332 329 328 328 331 334 329 322 319 316 316 314 315 317 319
328 329 328 326 326 328 326 324 323 324 323 324 325 326 326 327 328 329 328 325 326 326 323 322 323 325 321 321 317 313 327 320 319 319 321 326 323 319 317 315 317 322 319 317 317 317 317 321 322 322 322 323 320 322 324 320 315 313 307 312 305 312 313
328 329 327 326 327 327 326 326 325 324 324 324 326 326 326 325 324 325 322 323 324 325 323 324 324 323 323 322 318 319 321 322 320 319 320 320 321 320 315 314 307 312 322 318 314 308 305 309 314 315 319 324 317 318 322 320 314 305 298 298 297 297 298
328 327 328 327 326 326 326 326 326 326 325 325 325 323 323 323 324 325 324 325 325 324 325 326 325 323 319 320 316 317 322 321 321 325 324 325 322 324 322 319 316 300 303 313 313 302 295 295 297 301 307 321 315 309 307 305 299 296 298 297 297 296 295
329 329 328 328 328 329 327 326 326 325 326 326 325 323 324 323 325 326 322 324 325 324 325 325 324 327 323 321 320 322 323 324 323 323 325 324 323 327 323 323 322 317 303 298 303 301 296 293 292 292 295 300 310 320 311 303 296 296 296 297 296 296 296
Wind_Speed
13 15 14 14 15 16 16 14 14 13 12 12 12 15 12 11 12 10 12 11 12 11 10 10 10 8 9 7 8 7 8 7 6 6 5 4 5 4 5 7 6 4 3 4 3 4 4 3 3 3 3 4 5 4 3 3 2 4 2 2 2 1 2
13 14 13 14 15 16 16 15 14 12 13 12 12 11 11 12 13 12 12 12 12 12 11 11 9 9 9 8 7 7 8 9 9 6 6 5 4 4 5 4 4 5 4 1 3 2 4 4 4 5 5 4 4 3 4 3 3 2 2 3 3 1 1
12 12 11 10 12 13 14 13 14 12 14 14 14 12 12 10 11 11 12 13 12 11 11 13 11 10 9 9 9 9 9 9 7 7 7 6 8 8 6 5 5 5 6 4 3 4 3 5 3 5 5 4 5 5 3 3 3 3 3 3 2 4 5
12 11 11 11 11 11 13 12 13 12 13 12 14 14 11 11 12 10 12 13 13 14 12 13 12 12 10 9 9 9 9 8 9 9 9 8 7 6 4 4 4 3 5 6 5 5 4 3 4 3 4 3 2 4 4 3 3 3 3 3 3 1 2
14 14 10 9 5 5 11 12 13 11 11 12 12 11 11 11 11 10 11 13 13 15 14 14 13 12 9 10 9 9 9 10 8 8 8 7 6 5 4 5 6 6 4 7 6 4 3 4 4 4 4 5 5 4 4 3 3 2 2 3 3 3 3
14 7 6 2 5 6 10 12 13 13 12 11 11 11 11 12 13 15 12 12 12 11 11 12 13 11 11 11 9 9 7 7 6 5 6 8 7 6 7 7 5 6 8 6 5 5 6 4 6 6 6 5 6 6 5 4 4 5 4 3 3 3 2
10 9 9 9 6 9 10 16 16 11 9 7 11 11 11 11 12 11 10 11 10 11 14 13 12 10 8 8 7 7 9 10 8 9 7 7 8 7 6 5 7 8 6 6 6 6 7 6 5 6 4 6 4 5 3 4 4 4 2 3 4 3 3
11 11 11 8 6 4 2 6 11 10 8 10 7 9 9 9 9 9 9 11 10 12 10 9 7 9 8 7 9 7 7 8 9 9 7 8 7 7 8 8 5 5 4 6 5 5 6 4 7 4 5 5 4 4 5 2 3 5 3 4 3 4 5
7 5 5 4 7 8 6 1 4 10 7 8 2 5 3 6 3 4 5 4 4 5 6 6 6 7 7 6 7 8 8 7 7 7 9 10 8 9 8 7 7 5 5 6 6 6 4 6 6 3 4 4 4 5 5 6 5 3 5 4 3 4 5
7 9 12 11 7 4 0 5 7 8 6 7 7 10 8 9 6 4 3 3 3 6 3 5 4 5 5 6 6 7 6 6 6 8 8 9 8 9 9 7 7 5 6 7 6 5 4 3 4 4 3 4 3 3 3 4 4 4 4 4 4 4 3
7 10 12 10 7 4 6 9 9 6 7 6 7 7 8 9 6 4 3 4 2 5 4 8 5 4 5 6 6 7 7 8 6 8 7 6 5 8 8 8 8 7 7 7 7 7 5 4 3 4 3 5 5 4 3 4 5 5 6 4 4 3 5
10 12 10 10 9 5 7 7 8 8 6 5 6 5 5 10 10 5 4 5 5 7 8 6 4 5 5 5 6 5 7 8 9 8 7 6 4 4 8 8 8 8 8 8 7 6 6 6 7 5 4 4 5 5 5 4 5 4 5 5 4 6 5
13 13 10 11 10 5 5 5 5 6 5 5 5 5 6 7 8 7 5 7 6 7 7 5 1 4 6 6 6 5 6 7 7 7 6 4 4 4 5 7 8 8 8 7 6 7 7 7 6 4 5 5 6 7 5 4 5 4 4 5 6 4 2
15 15 12 12 12 13 10 9 7 2 2 4 5 6 6 4 7 6 5 5 4 5 8 8 10 7 6 7 6 5 6 5 5 5 4 3 4 3 3 5 7 7 5 3 5 7 8 8 6 7 6 7 7 5 5 4 5 4 4 5 5 5 4
17 17 17 17 16 13 13 11 8 7 1 1 2 2 4 2 5 4 3 5 5 7 7 7 6 6 6 5 5 5 5 4 3 3 3 3 4 4 4 4 5 6 6 5 6 7 7 7 9 5 8 6 5 5 6 7 6 6 5 6 5 4 5
15 16 16 16 16 15 14 12 11 10 10 8 5 4 1 3 3 6 4 4 6 5 5 4 5 6 6 5 5 4 4 4 3 2 3 2 2 2 2 3 4 4 4 6 7 6 4 4 4 8 5 6 7 8 6 7 6 6 12 8 5 4 4
11 9 12 13 11 13 12 12 11 9 8 8 7 5 4 2 1 1 2 3 2 1 4 3 3 5 5 5 5 4 4 4 3 3 3 3 2 2 1 0 1 2 3 4 4 4 6 6 6 6 8 8 5 6 5 6 8 13 10 2 6 6 4
11 8 8 7 11 11 11 11 10 9 9 9 7 7 4 4 3 3 5 4 2 2 3 3 3 4 4 4 4 3 4 3 3 3 3 3 3 3 2 2 2 1 2 2 3 3 5 7 6 4 6 7 10 11 8 5 11 15 13 11 12 10 2
7 4 9 6 9 10 9 10 9 8 10 10 10 9 9 9 9 8 9 5 2 2 2 1 3 4 4 2 6 7 7 4 3 3 2 2 3 3 2 3 3 3 3 4 3 2 2 4 7 5 7 7 6 4 5 6 10 11 11 11 11 10 8
1 2 11 13 12 11 11 11 9 10 10 9 9 10 9 10 9 7 6 7 9 8 8 7 7 6 6 7 6 5 4 3 4 5 4 4 4 3 3 4 4 4 4 5 4 3 4 5 5 2 3 3 4 4 5 5 7 8 9 9 9 9 6
6 10 12 12 12 12 12 12 12 11 10 9 9 8 8 8 8 7 8 8 9 9 9 8 8 7 6 5 4 4 5 5 2 2 4 6 5 3 2 2 3 3 4 4 3 2 3 3 1 4 4 3 3 4 6 5 9 8 8 8 8 9 4
10 11 12 11 12 11 11 12 11 10 9 7 8 8 7 7 7 7 9 9 9 9 9 9 8 9 8 7 5 5 5 5 5 6 6 4 2 2 1 2 1 4 4 4 3 2 1 3 4 5 4 3 3 2 4 5 9 9 8 8 8 7 3
14 12 11 12 12 14 13 12 12 10 8 8 7 8 8 7 7 8 8 9 8 8 8 8 9 8 7 7 7 6 5 5 5 5 5 5 6 5 4 3 3 1 3 4 3 5 5 4 4 3 4 4 4 4 5 5 7 9 8 8 10 6 2
13 12 12 12 12 13 13 13 13 12 10 9 9 8 8 8 8 9 9 10 9 8 8 8 8 7 7 7 7 6 5 4 4 5 5 5 5 4 4 3 4 3 2 2 2 3 6 5 4 4 3 4 5 5 5 4 6 10 9 9 9 6 3
12 11 10 9 11 12 10 9 12 15 13 11 10 9 9 10 10 9 10 9 9 9 9 8 7 7 7 7 6 6 5 5 6 5 5 5 5 4 4 4 4 2 1 1 2 4 4 4 8 7 5 5 6 10 8 5 6 10 9 10 10 6 3
10 11 12 13 12 11 10 9 9 11 12 12 11 9 8 8 7 8 8 8 8 8 8 7 7 6 7 7 8 6 6 7 5 5 5 5 4 4 4 3 2 1 2 3 4 4 5 3 3 9 8 8 7 6 7 6 5 6 8 10 12 11 4
10 10 11 12 12 10 8 8 8 9 10 8 7 7 7 6 8 9 9 9 9 10 9 6 6 6 7 7 7 8 9 9 9 8 8 5 4 3 2 1 3 5 5 5 5 6 6 8 3 8 9 8 7 6 6 6 6 6 9 10 12 13 9
11 11 11 10 9 8 9 10 9 10 10 8 8 7 7 7 7 6 7 8 9 9 7 6 5 6 6 6 6 7 7 7 7 7 6 7 6 2 2 4 5 3 5 4 3 3 5 5 5 4 7 7 7 6 6 8 10 5 6 9 10 11 11
8 9 11 10 10 11 9 9 9 9 9 8 8 8 7 8 8 8 7 8 8 7 6 6 5 5 6 6 5 4 5 3 3 4 6 6 7 6 4 3 4 3 3 3 4 4 5 5 4 3 4 5 5 4 5 5 6 8 6 7 8 8 8
8 9 10 10 10 9 10 8 8 8 9 9 8 7 7 7 7 7 8 8 6 6 6 6 4 3 4 4 4 5 5 5 3 3 2 2 3 5 6 7 6 6 6 3 3 3 3 3 1 2 4 4 4 5 5 5 5 5 6 4 5 5 6
10 11 10 9 10 10 9 8 9 8 9 8 8 7 7 7 7 7 7 5 4 4 3 3 3 4 4 4 4 3 3 4 5 3 0 1 3 3 4 5 5 4 5 6 4 4 4 4 0 2 2 7 6 5 5 5 5 4 3 5 4 4 6
8 8 10 10 11 11 9 7 8 9 9 8 8 8 6 6 6 7 6 5 4 4 4 4 3 3 3 3 2 2 2 2 5 4 2 2 1 2 2 2 2 3 4 3 5 6 7 5 3 5 6 3 6 6 5 5 4 4 4 4 6 7 10
10 8 9 7 6 7 7 8 8 8 8 8 8 8 7 7 6 5 4 4 5 4 3 3 3 2 2 3 2 2 2 3 2 2 4 4 4 2 3 2 2 1 1 2 5 5 4 5 5 5 6 7 5 5 5 8 6 6 5 6 5 6 7
6 6 7 9 8 7 7 7 8 8 8 7 7 7 7 6 6 5 3 4 5 5 3 2 1 3 3 4 4 3 3 2 1 3 1 5 6 5 5 4 2 3 6 6 5 5 6 6 5 6 6 7 7 3 6 6 6 6 5 5 5 5 5
5 7 8 8 5 6 6 7 8 8 7 7 6 6 6 6 5 4 5 4 4 2 2 3 2 2 2 3 4 3 1 2 3 6 5 2 7 7 5 4 5 6 6 6 5 4 3 4 4 4 5 6 6 8 6 5 5 4 3 3 3 4 4
5 6 7 6 6 6 7 7 8 8 7 6 5 5 5 5 5 4 5 4 3 2 3 2 1 1 3 5 6 5 4 5 5 5 5 6 4 6 5 7 9 6 4 4 6 7 6 5 3 3 5 6 8 5 4 4 3 3 1 1 2 2 2
4 6 5 7 7 7 7 7 7 7 7 6 6 6 6 5 5 4 5 4 3 3 2 1 1 1 3 4 4 3 4 4 4 3 3 3 3 3 3 4 6 11 12 8 5 5 7 8 7 9 8 5 6 7 10 10 7 6 3 3 3 3 6
6 6 6 7 5 7 7 7 7 7 7 6 6 7 6 6 5 5 5 4 3 3 2 1 1 1 3 4 3 3 1 3 3 1 2 3 2 1 2 1 3 3 4 5 6 4 5 6 6 6 6 8 7 5 3 4 7 7 6 5 5 6 7
Wind_Direction
206 190 189 184 184 186 183 186 182 179 173 174 180 177 183 164 152 152 167 165 167 168 162 169 166 163 168 174 171 160 162 167 167 176 191 203 204 193 176 180 182 184 185 194 164 137 198 200 182 174 176 207 159 198 177 214 195 210 192 182 180 138 234
203 193 194 181 186 184 183 183 180 175 168 177 184 171 176 173 155 166 160 167 168 169 167 167 172 167 169 172 172 183 166 177 169 178 179 195 213 185 210 175 166 169 154 107 126 210 174 203 167 169 199 211 153 196 210 192 221 237 182 187 197 175 70
205 191 199 189 181 184 179 179 181 171 170 179 181 176 179 160 160 153 155 167 167 173 171 171 174 174 168 175 172 182 177 176 176 179 184 203 195 198 198 175 166 198 160 154 160 201 215 166 189 163 190 232 168 186 202 210 194 211 154 216 196 201 205
197 196 185 196 187 184 176 181 181 166 173 178 179 177 170 151 158 157 161 167 169 174 175 171 177 173 176 176 183 177 182 177 179 188 192 192 197 209 194 187 187 192 155 157 192 209 164 183 178 177 184 204 146 214 211 199 199 208 205 195 234 220 216
193 196 190 174 169 215 180 180 181 162 170 171 178 170 162 145 152 160 162 174 176 176 179 174 177 173 174 180 187 181 185 189 187 191 189 190 194 189 200 217 194 191 204 180 185 153 149 158 184 212 175 200 175 197 223 190 200 230 259 206 227 216 203
189 162 75 4 177 213 214 190 173 166 170 179 175 162 161 155 167 173 175 175 178 177 179 178 179 171 176 184 191 180 178 189 185 202 204 171 179 183 198 218 206 227 181 203 170 189 170 175 219 181 196 193 201 191 206 208 202 198 217 224 237 240 237
171 147 174 189 179 193 225 184 179 168 167 163 169 157 157 166 170 171 177 172 180 176 181 186 181 168 180 175 188 187 177 193 192 200 206 211 177 194 205 216 203 212 208 177 184 192 191 192 198 205 189 210 181 184 200 222 219 200 168 219 219 202 239
167 170 178 171 159 91 341 305 187 159 153 157 173 154 156 170 167 167 182 173 185 180 187 179 176 162 178 177 171 188 188 193 189 200 198 207 204 203 204 220 208 232 224 190 201 209 187 203 209 207 197 203 202 185 180 204 216 180 201 224 206 241 224
137 125 88 67 58 49 101 196 346 71 30 337 106 73 115 132 73 173 146 99 172 192 190 182 175 158 164 175 168 178 183 181 202 199 203 204 209 210 217 211 217 207 223 226 213 202 198 192 224 206 191 235 173 179 191 202 222 216 199 214 226 222 249
132 97 75 62 64 147 293 114 100 103 110 141 117 94 57 354 334 41 83 91 69 6 283 190 175 158 159 169 161 171 181 191 189 201 220 219 209 218 214 216 217 214 225 225 234 222 200 225 234 203 186 211 238 191 224 167 200 222 234 196 213 222 244
128 103 104 124 139 117 55 64 78 86 101 103 105 114 138 137 217 251 150 129 130 107 315 291 180 174 167 168 178 177 183 189 199 200 203 221 226 225 221 221 221 209 215 225 232 220 212 175 239 249 179 210 210 223 219 233 213 216 231 211 233 245 237
135 125 122 122 116 87 83 82 88 109 115 123 131 144 164 143 159 191 153 160 175 169 173 240 216 176 168 174 184 188 188 196 196 206 209 212 215 246 253 233 226 231 207 220 232 223 226 194 199 207 198 202 234 227 215 218 232 222 242 237 206 227 237
134 132 140 135 131 135 115 68 60 83 98 131 146 163 167 149 140 150 155 168 181 161 160 190 197 206 164 180 189 189 204 198 204 203 211 194 198 207 251 268 267 242 229 205 228 247 228 232 186 191 203 204 224 238 228 224 231 240 228 241 240 208 195
146 137 153 138 145 156 153 139 150 178 129 126 132 165 151 139 141 134 155 158 155 168 163 170 180 206 168 183 181 184 199 204 205 208 205 182 182 204 242 268 273 289 310 272 226 232 250 251 233 188 209 210 226 232 241 224 231 241 254 246 239 244 203
152 151 151 142 148 151 147 159 155 137 156 207 134 113 108 123 117 96 147 164 175 187 187 173 174 176 184 190 189 184 177 206 214 201 204 209 185 181 205 231 262 285 302 301 284 247 240 237 254 242 197 216 206 218 231 238 226 232 235 231 243 252 251
154 156 152 148 143 143 148 153 149 153 166 158 169 149 63 27 94 149 183 183 185 198 196 168 189 174 184 192 197 198 187 187 193 196 154 141 149 165 189 225 247 274 324 344 341 329 344 330 318 293 266 206 211 213 230 238 238 257 213 211 234 240 251
143 145 135 128 131 136 139 141 141 148 153 155 156 153 167 184 163 78 292 232 238 292 5 349 224 207 204 193 186 196 187 183 180 146 160 147 151 153 181 135 16 8 347 330 321 338 346 346 335 307 298 292 260 232 248 357 7 5 21 296 212 193 224
45 36 76 101 123 123 128 127 132 135 140 139 143 144 158 201 210 197 198 186 204 262 307 309 344 315 284 280 257 203 205 207 212 196 186 185 193 209 201 215 202 254 289 300 315 334 344 335 327 326 316 327 358 6 50 70 9 5 14 28 21 10 319
107 143 126 133 104 89 91 106 106 107 103 83 70 70 72 77 69 46 30 24 259 206 215 293 326 310 316 322 303 328 324 318 271 251 242 213 220 216 222 217 228 232 238 246 269 340 13 310 297 320 45 64 86 85 55 55 7 7 12 17 24 14 354
62 344 83 81 82 82 81 77 71 73 74 77 78 73 68 65 65 58 55 61 52 56 54 62 57 56 56 48 43 31 13 360 318 278 269 266 260 243 237 229 235 245 239 240 223 202 190 234 259 21 66 45 97 100 89 65 14 6 16 21 18 12 2
132 106 97 95 90 89 82 74 68 61 60 55 63 71 69 71 72 66 57 56 63 58 56 59 54 45 44 55 58 43 30 17 344 358 321 297 285 294 328 354 337 327 317 324 332 321 210 226 127 83 106 105 56 61 70 46 8 8 10 18 5 356 327
108 103 101 99 100 92 88 85 81 79 71 58 54 54 59 73 81 80 71 64 64 64 65 61 52 50 52 58 49 52 56 58 51 46 50 29 349 273 18 31 309 277 319 326 327 298 237 145 133 114 118 126 101 83 92 69 28 8 4 4 3 331 320
86 89 95 100 96 90 85 89 92 92 87 82 76 77 80 80 81 78 72 70 67 70 72 71 65 48 32 36 41 42 47 71 84 74 56 51 58 55 52 57 45 68 45 25 328 251 220 182 138 162 148 125 95 74 66 52 21 18 11 6 2 359 357
90 92 95 97 97 98 100 103 102 90 89 86 80 80 78 76 79 75 74 71 66 65 63 62 61 54 51 42 26 23 26 37 66 82 78 69 66 57 46 46 37 34 41 32 333 311 254 187 173 173 163 128 118 103 93 68 26 23 12 13 8 350 352
93 94 91 89 100 106 103 98 110 117 116 107 98 96 99 98 96 93 89 81 75 70 67 62 56 47 49 36 26 14 14 38 41 56 81 83 79 72 50 36 49 44 70 343 330 329 303 205 186 177 156 131 109 113 106 84 48 31 12 19 21 5 336
102 102 101 100 98 99 105 118 121 111 106 106 107 108 105 104 102 104 101 96 88 79 71 60 51 50 51 41 24 17 19 20 34 51 54 66 70 96 117 128 117 254 106 52 32 12 358 345 205 130 118 105 104 104 105 90 68 41 24 29 25 11 342
108 106 106 104 107 119 117 102 89 88 89 88 98 101 98 97 94 87 86 88 88 84 87 90 81 67 67 64 51 42 35 26 21 20 6 22 78 32 24 177 151 120 96 72 32 19 5 28 1 101 104 104 103 102 95 104 90 55 41 41 37 27 23
118 111 103 105 117 111 100 101 104 100 99 99 96 96 95 94 93 99 101 98 96 102 108 112 93 93 92 80 73 71 65 51 22 11 9 350 0 15 51 33 37 57 90 89 67 41 24 19 30 62 96 99 99 98 98 90 92 90 52 48 50 46 37
126 119 116 119 115 111 116 118 112 109 111 107 99 96 96 92 90 90 91 94 104 101 93 84 89 92 102 118 122 124 124 124 55 24 343 357 358 359 22 47 79 78 84 99 109 69 48 38 29 43 93 106 110 113 109 107 98 91 75 52 50 45 50
125 128 133 131 123 122 117 115 117 104 87 78 76 79 83 89 85 80 77 70 59 89 109 118 115 112 98 84 109 136 138 123 107 103 310 347 25 18 24 11 11 28 18 52 75 98 128 137 76 75 138 126 132 127 116 101 87 70 92 85 52 41 33
136 137 135 134 126 118 112 103 99 101 102 97 89 83 84 88 92 88 83 75 72 59 63 81 103 95 88 92 96 88 106 130 148 141 239 324 50 51 38 25 12 27 10 360 14 59 48 353 80 208 191 143 148 128 119 123 112 125 151 136 114 69 29
139 140 131 128 128 127 113 125 119 111 106 109 112 111 110 103 95 94 91 104 97 88 74 67 64 71 82 90 46 32 64 102 107 117 122 114 84 128 118 102 48 30 354 30 31 16 5 1 21 16 349 49 97 103 115 99 104 80 62 30 37 31 17
139 144 125 137 114 115 142 134 121 120 125 121 119 116 111 104 101 101 108 103 105 96 89 90 94 98 98 80 90 87 48 20 346 158 173 177 152 137 141 115 70 76 73 31 16 23 29 14 19 52 19 345 40 71 74 74 59 44 29 20 17 16 10
116 127 117 123 143 137 113 116 122 121 115 110 104 103 107 116 124 135 133 104 98 110 133 137 183 160 164 165 168 166 132 98 345 290 24 53 58 54 31 33 356 91 58 43 25 18 18 8 16 42 22 11 359 358 81 67 55 34 26 12 11 8 9
111 116 115 134 123 109 126 131 133 131 131 124 126 125 126 126 126 121 105 105 99 94 73 80 36 356 127 135 113 80 298 137 75 39 9 85 99 72 56 34 30 35 73 57 41 41 28 11 9 10 20 63 51 31 54 63 60 48 13 13 346 12 3
131 130 138 133 139 136 138 144 142 146 136 130 126 127 133 133 137 149 135 125 116 100 96 89 112 77 51 45 41 40 31 46 56 47 17 14 56 108 94 59 53 37 43 84 85 76 68 69 64 23 9 51 60 46 48 76 98 123 103 263 334 292 268
163 152 169 149 159 147 152 148 149 138 142 140 143 145 144 151 165 163 124 109 119 134 123 198 230 183 118 78 61 41 25 40 53 49 31 20 32 11 104 134 65 45 48 65 95 98 96 92 89 65 41 48 104 69 86 111 135 164 202 254 261 269 279
181 176 172 168 174 158 159 156 157 154 152 152 160 152 161 162 153 133 128 137 137 128 154 221 215 296 83 104 99 84 1 102 94 16 161 109 0 28 340 186 139 77 51 75 79 65 79 83 69 63 68 55 64 113 124 153 170 191 206 232 247 261 269